Location: Boiro
(42.6475°N, 8.8834°W)
Time: 09:24:08
(UTC+02:00)

Kosmos-337 - Visible Passes

Search period start: 26 June 2022 00:00
Search period end: 06 July 2022 00:00
Orbit: 1467 x 1552 km, 74.0° (Epoch: 25 June)

Date Brightness Start Highest point End Pass type
(mag) Time Alt. Az. Time Alt. Az. Time Alt. Az.
26 Jun ? 02:40:51 10° N 02:47:06 20° NE 02:53:17 10° E visible
26 Jun ? 04:38:23 10° NNW 04:47:36 72° ENE 04:56:40 10° SSE visible
27 Jun ? 01:56:01 10° N 01:59:58 13° NE 02:03:54 10° ENE visible
27 Jun ? 03:52:41 10° NNW 04:01:30 48° ENE 04:10:11 10° SE visible
27 Jun ? 05:51:35 10° NNW 06:00:01 43° W 06:08:21 10° SSW visible
28 Jun ? 03:07:08 10° N 03:15:07 32° NE 03:22:59 10° ESE visible
28 Jun ? 05:05:23 10° NNW 05:14:29 69° WSW 05:23:26 10° S visible
29 Jun ? 02:21:46 10° N 02:28:25 21° NE 02:34:58 10° E visible
29 Jun ? 04:19:27 10° NNW 04:28:42 79° ENE 04:37:46 10° SSE visible
29 Jun ? 06:19:33 10° NW 06:26:14 23° W 06:32:51 10° SW visible
30 Jun ? 01:36:47 10° N 01:41:21 14° NE 01:45:54 10° ENE visible
30 Jun ? 03:33:42 10° NNW 03:42:40 52° ENE 03:51:27 10° SE visible
30 Jun ? 05:32:46 10° NNW 05:40:59 39° W 05:49:05 10° SSW visible
01 Jul ? 02:48:07 10° N 02:56:20 35° NE 03:04:25 10° ESE visible
01 Jul ? 04:46:30 10° NNW 04:55:30 62° WSW 05:03:26 14° S visible
02 Jul ? 02:02:42 10° N 02:09:42 23° NE 02:16:35 10° E visible
02 Jul ? 04:00:32 10° NNW 04:09:46 87° ENE 04:17:28 16° SSE visible
02 Jul ? 06:00:58 10° NW 06:07:08 21° W 06:13:15 10° SW visible
03 Jul ? 01:17:36 10° N 01:22:44 16° NE 01:27:48 10° ENE visible
03 Jul ? 03:14:45 10° NNW 03:23:47 58° ENE 03:31:39 14° SE visible
03 Jul ? 05:14:00 10° NW 05:21:55 35° W 05:27:50 17° SSW visible
04 Jul ? 00:33:43 10° NNE 00:35:24 11° NNE 00:37:05 10° NE visible
04 Jul ? 02:29:07 10° N 02:37:32 38° ENE 02:45:48 10° ESE visible
04 Jul ? 04:27:39 10° NNW 04:36:30 56° WSW 04:42:08 24° SSW visible
05 Jul ? 01:43:40 10° N 01:50:59 25° NE 01:58:10 10° ESE visible
05 Jul ? 03:41:37 10° NNW 03:50:50 86° WSW 03:56:30 27° SSE visible
05 Jul ? 05:42:28 10° NW 05:48:01 18° W 05:52:42 12° WSW visible
